Location: Heisede
(52.2582°N, 9.8523°E)
Time: 23:58:37
(UTC+00:00)

Cosmos 2184 Rocket - Pass Details

Date: 13 January 2026
Orbit: 959 x 1001 km, 82.9° (Epoch: 18 February)

Event Time Altitude Azimuth Distance (km) Brightness Sun altitude
Rises 06:10:59 0° 212° (SSW) 3,658 6.9 -10.7°
Reaches altitude 10° 06:13:39 10° 220° (SW) 2,709 6.2 -10.3°
Maximum altitude 06:19:29 42° 290° (WNW) 1,352 4.3 -9.5°
Drops below altitude 10° 06:25:20 10° 0° (N) 2,707 6.1 -8.7°
Sets 06:28:00 0° 8° (N) 3,656 6.8 -8.3°
